Tracking 29033 objects as of 22-Jun-2024
HD Live streaming from Space Station
objects crossing your sky now

GEARRS-3

Track GEARRS-3 now!
10-day predictions


NORAD ID: 51097
Int'l Code: 2022-003D
Perigee: 336.2 km
Apogee: 355.3 km
Inclination: 44.9 °
Period: 91.3 minutes
Semi major axis: 6716 km
RCS: Unknown
Launch date: January 13, 2022
Source: United States (US)
Launch site: Pegasus launched from Western Range Air Space (WRAS)
Your satellite tracking list
Your tracking list is empty




NASA's NSSDC Master Catalog

Two Line Element Set (TLE):
1 51097U 22003D   24173.40257944  .00146022  00000-0  85209-3 0  9993
2 51097  44.9382 308.4718 0014187 306.3272  53.6319 15.77123700136762
Source of the keplerian elements: AFSPC